Overview Statistics Trail Chart Weather Telemetry Raw packets
 

This is the latest recevied weather packets stored in our database for station/object N4ASP-13. If no packets are shown the sender has not sent any weather packets the latest 10 day(s).

<< 562 563 564 565 566 >>
Time Temp. Humidity Pressure Rain* Wind** Luminosity Snow
1787776232 26.67° C 78% 1018.4 hPa 0 mm - 680 W/m² -
1787776171 26.67° C 77% 1018.6 hPa 0 mm - 742 W/m² -
1787776113 26.67° C 77% 1018.4 hPa 0 mm - 742 W/m² -
1787776048 26.67° C 77% 1018.6 hPa 0 mm - 779 W/m² -
1787775987 26.67° C 76% 1018.6 hPa 0 mm - 742 W/m² -
1787775928 26.67° C 76% 1018.7 hPa 0 mm - 759 W/m² -
1787775868 26.67° C 76% 1018.6 hPa 0 mm - 686 W/m² -
1787775808 26.67° C 75% 1018.7 hPa 0 mm - 752 W/m² -
1787775748 26.67° C 75% 1018.7 hPa 0 mm - 721 W/m² -
1787775689 26.67° C 75% 1018.7 hPa 0 mm - 731 W/m² -
1787775627 26.67° C 76% 1018.8 hPa 0 mm - 694 W/m² -
1787775568 26.67° C 75% 1018.8 hPa 0 mm - 738 W/m² -
1787775507 26.67° C 76% 1018.7 hPa 0 mm - 738 W/m² -
1787775449 26.67° C 75% 1018.9 hPa 0 mm - 735 W/m² -
1787775387 26.67° C 75% 1018.9 hPa 0 mm - 759 W/m² -
1787775328 26.67° C 73% 1018.9 hPa 0 mm - 777 W/m² -
1787775268 26.67° C 74% 1018.9 hPa 0 mm - 185 W/m² -
1787775207 26.67° C 74% 1018.9 hPa 0 mm - 185 W/m² -
1787775147 26.67° C 74% 1019.2 hPa 0 mm - 151 W/m² -
1787775087 26.67° C 75% 1018.9 hPa 0 mm - 144 W/m² -
1787775029 26.67° C 74% 1018.9 hPa 0 mm - 772 W/m² -
1787774968 26.67° C 74% 1018.9 hPa 0 mm - 772 W/m² -
1787774909 26.67° C 74% 1018.8 hPa 0 mm - 773 W/m² -
1787774847 26.67° C 74% 1018.9 hPa 0 mm - 772 W/m² -
1787774788 26.67° C 75% 1018.9 hPa 0 mm - 772 W/m² -

* Rain latest hour (hover to see other rain measurements)
** Current wind speed in m/s (hover to see current wind gust speed)